User: anonymous   Login
Location: Theydon Bois
(51.6750°N, 0.1050°E)
Time: 06:20:44
(UTC+01:00)
Language:

Cosmos 2082 Rocket - Orbit

View from above orbital plane
View from above orbital plane
View from above satellite
View from above satellite

Ground track
Ground track

The orbit data is extracted from the following two-line orbital elements,

1 20625U 90046B   17291.88234411 -.00000327  00000-0 -14513-3 0  9996
2 20625  70.9985 249.5250 0016842 278.2264  81.6948 14.14620265415326
Epoch (UTC): 18 October 2017 21:10:34
Eccentricity: 0.0016842
inclination: 70.9985°
perigee height: 831 km
apogee height: 856 km
right ascension of ascending node: 249.5250°
argument of perigee: 278.2264°
revolutions per day: 14.14620265
mean anomaly at epoch: 81.6948°
orbit number at epoch: 41532

The dashed part of the orbit path shows where the satellite is in the earth's shadow,  

DLR